Regional Weather Roundup
Issued by NWS Kansas City/Pleasant Hill, MO

Home | Current Version | Previous Version | Text Only | Print | Product List | Glossary On
Versions: 1 2 3 4 5 6 7 8 9 10 11 12 13 14 15 16 17 18 19 20 21 22 23 24 25 26 27 28 29 30 31 32 33 34 35 36 37 38 39 40 41 42 43 44 45 46 47 48 49 50
000
ASUS43 KEAX 211211
RWREAX

WEATHER ROUNDUP FOR EASTERN KANSAS AND NORTHWEST MISSOURI
NATIONAL WEATHER SERVICE KANSAS CITY/PLEASANT HILL MO
700 AM CDT MON APR 21 2014

KSZ040-057-103>105-MOZ028-029-037-043-211300-
...KANSAS CITY METROPOLITAN AREA...

CITY           SKY/WX    TMP DP  RH WIND       PRES   REMARKS
K.C. INTL      LGT RAIN  62  56  80 SW9       29.99R
6HR MIN TEMP:  61; 6HR MAX TEMP:  65; 6HR PCP: TRACE;

K.C. DOWNTOWN  CLOUDY    64  56  75 SW7       29.98R
6HR MIN TEMP:  64; 6HR MAX TEMP:  68; 6HR PCP: TRACE;

LEES SUMMIT    CLOUDY    62  56  80 S8        30.00R
6HR MIN TEMP:  62; 6HR MAX TEMP:  67; 6HR PCP: TRACE;

OLATHE - IXD   CLOUDY    60  57  89 S8        29.99S
6HR MIN TEMP:  59; 6HR MAX TEMP:  63; 6HR PCP:  0.01;

OLATHE - OJC   CLOUDY    60  57  89 S7        29.98S
6HR MIN TEMP:  60; 6HR MAX TEMP:  64; 6HR PCP: TRACE;

LAWRENCE       CLOUDY    62  57  83 CALM      29.98R

$$

MOZ001>008-011>017-020>025-030>033-038>040-044>046-053-054-211300-
...NORTHERN AND CENTRAL MISSOURI...

CITY           SKY/WX    TMP DP  RH WIND       PRES   REMARKS
ST. JOSEPH     CLOUDY    60  57  89 CALM      29.97S
6HR MIN TEMP:  59; 6HR MAX TEMP:  64; 6HR PCP:  0.26;

MOSBY          LGT RAIN  61  59  94 CALM      29.99R
WARRENSBURG    CLOUDY   N/A N/A N/A S7        30.01S
WHITEMAN AFB   LGT RAIN  59  55  86 SW7       30.02R
6HR MIN TEMP:  57; 6HR MAX TEMP:  60; 6HR PCP: TRACE;

CLINTON        CLOUDY    61  61 100 SW9       30.02F FOG
SEDALIA        LGT RAIN  61  57  87 SW8       30.03R
6HR MIN TEMP:  60; 6HR MAX TEMP:  65; 6HR PCP:  0.01;

WARSAW         NOT AVBL
MARSHALL         N/A     64  57  77 SW8       30.02R
CHILLICOTHE      N/A     61  58  90 SW3       30.00R
6HR MIN TEMP:  61; 6HR MAX TEMP:  68; 6HR PCP:  0.15;

MOBERLY        CLOUDY    63  52  67 SW6       30.01R
KIRKSVILLE     CLOUDY    63  53  70 SW6       29.99R
6HR MIN TEMP:  61; 6HR MAX TEMP:  68;


$$

MOZ041-047>049-056>058-063>065-088>090-097-211300-
...EASTERN AND SOUTHERN MISSOURI...

CITY           SKY/WX    TMP DP  RH WIND       PRES   REMARKS
ST. LOUIS INTL CLOUDY    63  48  58 CALM      30.01S
6HR MIN TEMP:  61; 6HR MAX TEMP:  71;

SPIRIT OF STL  CLOUDY    57  49  74 CALM      29.99F
COLUMBIA       CLOUDY    61  52  72 SW8       30.02R
JEFFERSON CITY CLOUDY    62  53  72 W7        30.02R
MEXICO         CLOUDY    55  52  88 CALM      30.00S
HANNIBAL       CLOUDY    63  48  59 S5        30.00R
ROLLA          CLOUDY    58  52  80 SW10      30.03R
OSAGE BEACH    CLOUDY    59  55  88 SW3       30.05S
SPRINGFIELD    LGT RAIN  60  58  92 SE6       30.04S FOG
BRANSON        CLOUDY    59  57  94 CALM      30.06S FOG
NEVADA         RAIN      59  57  94 SE5       30.04S VSB 1
JOPLIN         CLOUDY    60  59  96 CALM      30.03R FOG
WEST PLAINS    CLOUDY    59  55  87 S5        30.07S

$$

IAZ060-094-KSZ022-034>040-054-083-096-NEZ052-066-093-211300-
...KANSAS...SOUTHEAST NEBRASKA AND IOWA...

CITY           SKY/WX    TMP DP  RH WIND       PRES   REMARKS
TOPEKA         CLOUDY    62  56  80 SW3       29.98R
6HR MIN TEMP:  60; 6HR MAX TEMP:  66; 6HR PCP: TRACE;

MANHATTAN      LGT RAIN  59  57  93 W6        29.99R
EMPORIA        HVY RAIN  58  57  97 S12       29.99R VSB 1
CHANUTE        CLOUDY    59  57  93 S7        30.01S FOG
WICHITA        MOCLDY    55  54  96 CALM      30.00R FOG
OMAHA          CLOUDY    59  57  93 NE3       29.95R
LINCOLN        CLOUDY    62  53  72 NW10      29.95S
FALLS CITY     CLOUDY    60  56  86 S5        29.96R
LAMONI         CLOUDY    61  56  83 SW12      29.95F
DES MOINES     MOCLDY    60  54  80 S7        29.94F

$$




USA.gov is the U.S. government's official web portal to all federal, state and local government web resources and services.